Home   Weather   Samford   Past weeks

Flag for Australia Past Weather in Samford, Queensland, Australia — Yesterday and Last 2 Weeks

68 °F

Passing clouds.

Feels Like: 68 °F
Forecast: 63 / 80 °F
Wind: 6 mph from Northeast

Location: Brisbane Airport M. O

Current Time: Oct 29, 2016 at 3:59:35 AM

Latest Report: Oct 29, 2016 at 3:00 AM

Visibility: N/A

Pressure: 30.04 "Hg

Humidity: 83%

Dew Point: 63 °F

Location of SamfordLocation

Past Weather in Samford — Graph


Samford Temperature Yesterday

Maximum temperature yesterday: 79 °F (at 10:30 AM)
Minimum temperature yesterday: 63 °F (at 2:30 AM)
Average temperature yesterday: 72 °F

High & Low Weather Summary for the Past Weeks

High79 °F (Oct 17, 10:00 AM)100% (Oct 17, 5:30 PM)30.24 "Hg (Oct 17, 5:30 PM)
Low52 °F (Oct 16, 5:00 AM)28% (Oct 23, 7:00 PM)29.77 "Hg (Oct 17, 3:00 PM)
Average68 °F63%30.05 "Hg
* Reported Oct 14 3:00 AM — Oct 29 3:00 AM, Samford, Weather by CustomWeather, © 2016

Note: Actual official high and low records may vary slightly from our data, if they occured in-between our weather recording intervals... More about our weather records


Samford Weather History for the Previous 24 Hours

Scroll right to see more
Time TempWeatherWind HumidityBarometerVisibility
3:00 AM
Sat, Oct 29
68 °FPassing clouds.6 mph83%30.04 "HgN/A
2:00 AM68 °FPassing clouds.6 mph83%30.04 "HgN/A
1:30 AM68 °FPassing clouds.7 mph83%30.04 "HgN/A
1:00 AM70 °FPassing clouds.7 mph78%30.04 "HgN/A
12:30 AM72 °FPassing clouds.7 mph73%30.04 "HgN/A
12:00 AM72 °FPassing clouds.6 mph78%30.04 "HgN/A
11:30 PM
Fri, Oct 28
72 °FPassing clouds.6 mph78%30.07 "HgN/A
11:00 PM72 °FPassing clouds.6 mph78%30.07 "HgN/A
10:30 PM72 °FPartly cloudy.7 mph78%30.07 "HgN/A
10:00 PM72 °FPassing clouds.3 mph78%30.07 "HgN/A
9:00 PM72 °FPassing clouds.5 mph73%30.04 "HgN/A
8:30 PM72 °FPassing clouds.6 mph78%30.04 "HgN/A
8:00 PM72 °FPassing clouds.8 mph73%30.01 "HgN/A
7:00 PM72 °FClear.10 mph73%30.01 "Hg10 mi
6:30 PM72 °FPassing clouds.13 mph73%29.98 "HgN/A
6:00 PM73 °FPartly sunny.13 mph69%29.98 "HgN/A
5:30 PM73 °FScattered clouds.17 mph69%29.98 "HgN/A
5:00 PM73 °FScattered clouds.16 mph65%29.95 "HgN/A
4:00 PM75 °FScattered clouds.16 mph61%29.95 "HgN/A
3:30 PM77 °FScattered clouds.17 mph54%29.92 "HgN/A
3:00 PM75 °FScattered showers. Scattered clouds.16 mph61%29.95 "HgN/A
2:30 PM75 °FScattered showers. Scattered clouds.16 mph61%29.95 "HgN/A
2:00 PM79 °FPartly sunny.17 mph48%29.95 "HgN/A
1:30 PM79 °FPartly sunny.18 mph51%29.95 "HgN/A
1:00 PM79 °FPartly sunny.18 mph51%29.98 "HgN/A
12:30 PM79 °FPartly sunny.18 mph51%29.98 "HgN/A
12:00 PM77 °FPartly sunny.17 mph57%30.01 "HgN/A
11:30 AM79 °FScattered clouds.17 mph51%30.01 "HgN/A
11:00 AM79 °FScattered clouds.16 mph54%30.04 "HgN/A
10:30 AM79 °FScattered clouds.14 mph51%30.04 "HgN/A
10:00 AM77 °FPassing clouds.14 mph54%30.04 "HgN/A
9:00 AM77 °FScattered clouds.9 mph51%30.07 "HgN/A
8:30 AM75 °FScattered clouds.9 mph54%30.07 "HgN/A
8:00 AM73 °FScattered clouds.9 mph65%30.04 "HgN/A
7:30 AM73 °FScattered clouds.8 mph65%30.04 "HgN/A
7:00 AM70 °FPassing clouds.8 mph73%30.04 "HgN/A
6:30 AM68 °FPassing clouds.8 mph78%30.04 "HgN/A
6:00 AM66 °FPassing clouds.1 mph83%30.04 "HgN/A
5:30 AM63 °FPassing clouds.1 mph88%30.01 "HgN/A
5:00 AM63 °FPassing clouds.6 mph88%30.01 "HgN/A
4:30 AM63 °FPassing clouds.6 mph88%30.01 "HgN/A
4:00 AM63 °FClear.5 mph94%29.98 "Hg10 mi
3:00 AM66 °FClear.10 mph83%29.98 "Hg10 mi
Weather by CustomWeather, © 2016

See weather overviewHow to use our weather pages